This is the latest recevied weather packets stored in our database for station/object VK3BKO-13. If no packets are shown the sender has not sent any weather packets the latest 10 day(s).
| Time | Temp. | Humidity | Pressure | Rain* | Wind** | Luminosity | Snow |
|---|---|---|---|---|---|---|---|
| 1777850223 | 16.67° C | 66% | 1010.5 hPa | 0 mm | - | 240 W/m² | - |
| 1777849324 | 16.11° C | 67% | 1010.5 hPa | 0 mm | - | 201 W/m² | - |
| 1777848423 | 16.11° C | 68% | 1010.5 hPa | 0 mm | - | 162 W/m² | - |
| 1777847523 | 15.56° C | 69% | 1010.9 hPa | 0 mm | - | 128 W/m² | - |
| 1777846623 | 15.56° C | 69% | 1010.9 hPa | 0 mm | - | 97 W/m² | - |
| 1777845723 | 15° C | 70% | 1010.9 hPa | 0 mm | - | 68 W/m² | - |
| 1777844823 | 14.44° C | 70% | 1010.9 hPa | 0 mm | - | 44 W/m² | - |
| 1777843923 | 14.44° C | 71% | 1010.5 hPa | 0 mm | - | 25 W/m² | - |
| 1777843024 | 14.44° C | 71% | 1010.5 hPa | 0 mm | - | 11 W/m² | - |
| 1777842124 | 14.44° C | 71% | 1010.5 hPa | 0 mm | - | 3 W/m² | - |
| 1777841224 | 13.89° C | 73% | 1010.5 hPa | 0 mm | - | 0 W/m² | - |
| 1777840323 | 13.33° C | 74% | 1010.2 hPa | 0 mm | - | 0 W/m² | - |
| 1777839424 | 13.33° C | 74% | 1010.2 hPa | 0 mm | - | 0 W/m² | - |
| 1777838524 | 13.89° C | 73% | 1010.5 hPa | 0 mm | - | 0 W/m² | - |
| 1777837624 | 13.89° C | 73% | 1010.2 hPa | 0 mm | - | 0 W/m² | - |
| 1777836724 | 13.33° C | 74% | 1010.5 hPa | 0 mm | - | 0 W/m² | - |
| 1777835824 | 13.33° C | 74% | 1010.9 hPa | 0 mm | - | 0 W/m² | - |
| 1777834924 | 13.89° C | 74% | 1010.9 hPa | 0 mm | - | 0 W/m² | - |
| 1777834024 | 13.89° C | 75% | 1010.9 hPa | 0 mm | - | 0 W/m² | - |
| 1777833124 | 13.89° C | 76% | 1010.9 hPa | 0 mm | - | 0 W/m² | - |
| 1777832223 | 13.33° C | 78% | 1010.9 hPa | 0 mm | - | 0 W/m² | - |
| 1777831323 | 13.33° C | 79% | 1011.2 hPa | 0 mm | - | 0 W/m² | - |
| 1777830423 | 13.33° C | 79% | 1011.2 hPa | 0 mm | - | 0 W/m² | - |
| 1777829523 | 13.33° C | 79% | 1011.5 hPa | 0 mm | - | 0 W/m² | - |
| 1777828624 | 13.33° C | 80% | 1011.2 hPa | 0 mm | - | 0 W/m² | - |
* Rain latest hour (hover to see other rain measurements)
** Current wind speed in m/s (hover to see current wind gust speed)